Location: Unspecified
(0.0000°N, 0.0000°E)
Time: 12:06:19
(UTC+00:00)

A-11 Canister half - All Passes

Search period start: 21 August 2014 00:00
Search period end: 31 August 2014 00:00
Orbit: 1526 x 1684 km, 47.3° (Epoch: 19 August)

Date Brightness Start Highest point End Pass type
(mag) Time Alt. Az. Time Alt. Az. Time Alt. Az.
21 Aug - 00:46:36 10° SW 00:56:07 75° NW 01:05:58 10° NNE visible
21 Aug - 02:57:17 10° WNW 03:01:40 14° NW 03:06:08 10° NNW visible
21 Aug - 11:34:06 10° NNW 11:43:39 51° NE 11:52:53 10° ESE daylight
21 Aug - 13:39:57 10° WNW 13:48:32 35° SW 13:56:55 10° SSE daylight
21 Aug - 22:23:04 10° S 22:29:36 21° SE 22:36:13 10° E night (unlit)
22 Aug - 00:25:05 10° SW 00:34:36 80° NW 00:44:27 10° NE visible
22 Aug - 02:35:05 10° WNW 02:40:04 15° NW 02:45:08 10° NNW visible
22 Aug - 11:12:39 10° NNW 11:22:07 48° NE 11:31:16 10° ESE daylight
22 Aug - 13:18:12 10° WNW 13:26:59 37° SW 13:35:35 10° SSE daylight
22 Aug - 22:01:55 10° S 22:08:03 19° SE 22:14:14 10° E night (unlit)
23 Aug - 00:03:34 10° SW 00:13:05 85° NW 00:22:55 10° NE night (unlit)
23 Aug - 02:12:59 10° W 02:18:27 16° NW 02:24:03 10° N visible
23 Aug - 10:51:12 10° NNW 11:00:34 45° NE 11:09:38 10° ESE daylight
23 Aug - 12:56:28 10° WNW 13:05:27 40° SW 13:14:13 10° SSE daylight
23 Aug - 21:40:48 10° S 21:46:29 17° SE 21:52:12 10° E night (unlit)
23 Aug - 23:42:03 10° SW 23:51:33 90° NW 00:01:22 10° NE night (unlit)
24 Aug - 01:50:57 10° W 01:56:52 18° NW 02:02:54 10° N visible
24 Aug - 10:29:46 10° NNW 10:39:01 42° NE 10:47:58 10° ESE daylight
24 Aug - 12:34:45 10° WNW 12:43:55 43° SW 12:52:51 10° SSE daylight
24 Aug - 21:19:45 10° SSE 21:24:54 16° SE 21:30:06 10° E night (unlit)
24 Aug - 23:20:34 10° SW 23:30:02 85° SE 23:39:49 10° NE night (unlit)
25 Aug - 01:28:59 10° W 01:35:16 19° NW 01:41:42 10° N visible
25 Aug - 10:08:21 10° NNW 10:17:27 39° NE 10:26:18 10° ESE daylight
25 Aug - 12:13:03 10° WNW 12:22:23 46° SW 12:31:28 10° SSE daylight
25 Aug - 20:58:46 10° SSE 21:03:20 14° SE 21:07:55 10° ESE visible
25 Aug - 22:59:05 10° SW 23:08:31 80° SE 23:18:15 10° NE night (unlit)
26 Aug - 01:07:04 10° W 01:13:41 21° NW 01:20:29 10° N visible
26 Aug - 09:46:57 10° NNW 09:55:54 36° NE 10:04:36 10° ESE daylight
26 Aug - 11:51:22 10° WNW 12:00:51 50° SW 12:10:05 10° SSE daylight
26 Aug - 20:37:55 10° SSE 20:41:45 13° SE 20:45:36 10° ESE visible
26 Aug - 22:37:37 10° SW 22:47:00 75° SE 22:56:41 10° NE night (unlit)
27 Aug - 00:45:11 10° W 00:52:07 22° NW 00:59:13 10° N night (unlit)
27 Aug - 09:25:33 10° NNW 09:34:20 34° NE 09:42:53 10° ESE daylight
27 Aug - 11:29:42 10° NW 11:39:19 53° SW 11:48:40 10° SSE daylight
27 Aug - 20:17:15 10° SSE 20:20:10 12° SE 20:23:04 10° ESE visible
27 Aug - 22:16:09 10° SSW 22:25:30 71° SE 22:35:06 10° NE night (unlit)
28 Aug - 00:23:21 10° W 00:30:32 24° NW 00:37:56 10° N night (unlit)
28 Aug - 09:04:11 10° N 09:12:46 32° NE 09:21:08 10° ESE daylight
28 Aug - 11:08:03 10° NW 11:17:47 57° SW 11:27:15 10° SSE daylight
28 Aug - 19:57:11 10° SE 19:58:34 10° SE 19:59:57 10° SE visible
28 Aug - 21:54:42 10° SSW 22:03:59 66° SE 22:13:30 10° NE visible
29 Aug - 00:01:32 10° W 00:08:58 26° NW 00:16:38 10° N night (unlit)
29 Aug - 08:42:49 10° N 08:51:12 30° NE 08:59:23 10° ESE daylight
29 Aug - 10:46:25 10° NW 10:56:14 61° SW 11:05:49 10° SSE daylight
29 Aug - 21:33:16 10° SSW 21:42:28 61° SE 21:51:53 10° NE visible
29 Aug - 23:39:45 10° WSW 23:47:25 28° NW 23:55:18 10° N night (unlit)
30 Aug - 08:21:29 10° N 08:29:37 28° NE 08:37:35 10° ESE daylight
30 Aug - 10:24:47 10° NW 10:34:42 65° SW 10:44:22 10° SSE daylight
30 Aug - 12:38:01 10° WSW 12:40:14 11° SW 12:42:26 10° SSW daylight
30 Aug - 21:11:51 10° SSW 21:20:58 57° SE 21:30:16 10° NE visible
30 Aug - 23:18:00 10° WSW 23:25:52 30° NW 23:33:58 10° N night (unlit)
